Tracking 20724 objects as of 2-Jun-2020
HD Live streaming from Space Station
objects crossing your sky now

HELIOS 1A

Track HELIOS 1A now!
10-day predictions
HELIOS 1A is classified as:


NORAD ID: 23605
Int'l Code: 1995-033A
Perigee: 595.1 km
Apogee: 606.5 km
Inclination: 98.2 °
Period: 96.6 minutes
Semi major axis: 6971 km
RCS: Unknown
Launch date: July 7, 1995
Source: France (FR)
Launch site: FRENCH GUIANA (FRGUI)

Optical reconnaissance; cannot see through clouds or at night.
aabbcc
Your satellite tracking list
Your tracking list is empty




NASA's NSSDC Master Catalog

Two Line Element Set (TLE):
1 23605U 95033A   20151.93829391 0.00000349  00000-0  35011-4 0    02
2 23605  98.1806 254.9948 0008129 140.9841 219.0158 14.91367242    03
Source of the keplerian elements: McCants